DELTA 1 DEB, 7169

Orbit data source: Space-Track

DELTA 1 DEB, 7169 is space debris in SSO originally from a launch on Tue, 06 Nov 1973 UTC launched from the Air Force Western Test Range (AFWTR). Debris objects in space refer to the collection of defunct objects orbiting the Earth. Examples of debris include non-operational satellites, rocket bodies, and fragments generated from explosions, collisions, or faulty payload assembly.

Loading next visibility...
Identifier
7169, 1973-086EH
Orbit
SSO
Country
Flag of USUS
Related business
Manufacturer
Unknown
Mission
Spacecraft
Bus & Motor
Unknown
Mass
Unknown
Launch date (UTC)
1973-11-06 (53 years ago)
Launch vehicle
Unknown
Launch site
Air Force Western Test Range (AFWTR)
Object type
Payload
Rocket body
Debris
Shape & HBR
Unknown shape, 0.1 m
Radar Cross Section
Medium (>0.1 m² and <1 m²)

Expand to show TLE details & history
Last TLE update: 1 day ago

TLE from 1 day ago
0 DELTA 1 DEB
1 07169U 73086EH  26206.42641064 -.00000050  00000-0 -23935-4 0  9993
2 07169 101.4257 271.7932 0130774 355.9982  14.5968 12.68824568434328
Epoch: 2026-07-25T10:14Z
TLE epoch observation values (Epoch: 2026-07-25T10:14:01.879Z)
Latitude
10.71346°
Longitude
172.96618°
Altitude
1,290.4 km
Speed
7.257 km/s
True Right ascension
17h 58m 27s
True Declination
10° 39' 19"
Sunlit
Object was in full shadow at epoch
Visualization orbit readout
Latitude
Unknown
Longitude
Unknown
Altitude
Unknown
Speed
Unknown
Apparent Right ascension
Unknown
Apparent Declination
Unknown
Sunlit
N/A
Visualization observer readout
Local Sidereal Time
23:16:45
Azimuth
Unknown
Elevation
Unknown
Doppler factor
Unknown
Orbital elements
Apogee altitude
1,485.746 km
Perigee altitude
1,282.723 km
Semi-major axis
7,762.371 km
Eccentricity
0.01308
Inclination
101.4257°
RAAN
271.7932°
Arg. of periapsis
355.9982°
True anomaly
14.98052°
Mean anomaly
14.5968°
Eccentric anomaly
14.78805°
Mean motion
3.1736 °/min
Orbital period
113.44 mins
BSTAR
-0.000023935
Loading maneuver chart data...
Computing Atmospheric mass density...
Loading historical data...
Loading historical data...
Loading historical data...
Loading historical data...
Loading historical data...
Loading historical data...
Loading historical data...

Documentation

Showing up to 5 results
|